Hourly Data Report for July 05, 2003

TORONTO CITY
ONTARIO

43°40'00.000" N
79°24'00.000" W
112.50 m
6158355
71508
XTO

Download Data

Hourly Data (July 2003)
Hourly Data Report for July 5, 2003
TIME
LST
Temp Definition
°C
Dew Point Definition
°C
Rel Hum Definition
%
Precip. Amount Definition
mm

Wind Dir Definition
10's deg

Wind Spd Definition
km/h
Visibility Definition
km
Stn Press Definition
kPa
Hmdx Definition


Wind Chill Definition


Weather Definition


00:00 24.7 18.8 70   LegendMM LegendMM LegendMM 99.35 31   LegendNANA
01:00 23.7 19.0 75   LegendMM LegendMM LegendMM 99.34 30   LegendNANA
02:00 23.8 19.5 77   LegendMM LegendMM LegendMM 99.38 31   LegendNANA
03:00 23.2 19.9 82   LegendMM LegendMM LegendMM 99.36 31   LegendNANA
04:00 23.1 20.1 83   LegendMM LegendMM LegendMM 99.40 31   LegendNANA
05:00 22.7 20.2 86   LegendMM LegendMM LegendMM 99.43 30   LegendNANA
06:00 22.4 20.1 87   LegendMM LegendMM LegendMM 99.50 30   LegendNANA
07:00 24.4 20.8 80   LegendMM LegendMM LegendMM 99.54 33   LegendNANA
08:00 25.9 20.3 71   LegendMM LegendMM LegendMM 99.57 34   LegendNANA
09:00 25.7 20.3 72   LegendMM LegendMM LegendMM 99.59 34   LegendNANA
10:00 27.5 21.3 69   LegendMM LegendMM LegendMM 99.62 36   LegendNANA
11:00 28.4 21.9 68   LegendMM LegendMM LegendMM 99.64 38   LegendNANA
12:00 28.7 21.7 66   LegendMM LegendMM LegendMM 99.60 38   LegendNANA
13:00 31.1 19.8 51   LegendMM LegendMM LegendMM 99.56 39   LegendNANA
14:00 30.7 21.0 56   LegendMM LegendMM LegendMM 99.48 39   LegendNANA
15:00 28.4 20.0 60   LegendMM LegendMM LegendMM 99.49 36   LegendNANA
16:00 27.0 19.5 64   LegendMM LegendMM LegendMM 99.47 34   LegendNANA
17:00 24.6 19.4 73   LegendMM LegendMM LegendMM 99.56 32   LegendNANA
18:00 21.3 17.8 80   LegendMM LegendMM LegendMM 99.59 27   LegendNANA
19:00 21.4 19.2 87   LegendMM LegendMM LegendMM 99.63 28   LegendNANA
20:00 20.5 19.1 92   LegendMM LegendMM LegendMM 99.65 27   LegendNANA
21:00 19.9 18.7 93   LegendMM LegendMM LegendMM 99.68     LegendNANA
22:00 20.0 18.7 92   LegendMM LegendMM LegendMM 99.71 27   LegendNANA
23:00 22.8 20.1 85   LegendMM LegendMM LegendMM 99.73 30   LegendNANA

Notes on Data Quality.

Legend

  • E = Estimated
  • M = Missing
  • NA = Not Available*
  • [empty] = Indicates an unobserved value
Date modified: